Dansville, NY

8:31 AM EDT on August 30, 2016 (GMT -0400)
Dansville Municipal

Weather History for KDSV - June, 2013

Change the Weather History Date:

Tuesday, June 11, 2013

  Actual Average Record
Temperature  
Mean Temperature 66 °F -  
Max Temperature 70 °F 77 °F 93 °F (1959)
Min Temperature 63 °F 50 °F 30 °F (1972)
Cooling Degree Days 1    
Growing Degree Days 16 (Base 50)    
Moisture  
Dew Point 61 °F    
Average Humidity 83    
Maximum Humidity 97    
Minimum Humidity 68    
Precipitation  
Precipitation 0.20 in - - ()
Sea Level Pressure  
Sea Level Pressure 29.75 in    
Wind  
Wind Speed 6 mph (NW)    
Max Wind Speed 14 mph    
Max Gust Speed 24 mph    
Visibility 9 miles    
Events Rain    
Averages and records for this station are not official NWS values.
T = Trace of Precipitation, MM = Missing Value Source: NWS Daily Summary

Daily Weather History Graph

Daily Weather History Graph

Search for Another Location

Airport or City:

Trip Planner

Search our weather history database for the weather conditions in past years. The results will help you decide how hot, cold, wet, or windy it might be!

Date:

Astronomy

Jun. 11, 2013 Rise Set
Actual Time 5:32 AM EDT 8:48 PM EDT
Civil Twilight 4:58 AM EDT 9:23 PM EDT
Nautical Twilight 4:13 AM EDT 10:08 PM EDT
Astronomical Twilight 3:18 AM EDT 11:03 PM EDT
Moon 8:16 AM EDT (6/11) 10:46 PM EDT (6/11)
Length of Visible Light 16h 25m
Length of Day
15h 15m
Waxing Crescent, 8% of the Moon is Illuminated
Jun 11
Waxing Crescent
Jun 16
First Quarter
Jun 23
Full
Jun 30
Last Quarter
Jul 8
New

Hourly Weather History & Observations

Time (EDT) Temp. Dew Point Humidity Pressure Visibility Wind Dir Wind Speed Gust Speed Precip Events Conditions
12:24 AM 66.2 °F 64.4 °F 94% 29.73 in 10.0 mi ESE 4.6 mph - 0.02 in   Overcast
12:54 AM 66.0 °F 64.9 °F 96% 29.74 in 10.0 mi SSE 4.6 mph - 0.02 in   Overcast
1:54 AM 64.9 °F 63.0 °F 93% 29.73 in 10.0 mi South 3.5 mph - N/A   Scattered Clouds
2:54 AM 64.0 °F 63.0 °F 96% 29.73 in 10.0 mi South 4.6 mph - N/A   Overcast
3:54 AM 64.0 °F 63.0 °F 96% 29.72 in 10.0 mi South 4.6 mph - N/A   Mostly Cloudy
4:54 AM 63.0 °F 62.1 °F 97% 29.71 in 10.0 mi SSE 4.6 mph - N/A   Overcast
5:54 AM 64.9 °F 62.1 °F 90% 29.70 in 10.0 mi ESE 8.1 mph - 0.00 in   Overcast
6:11 AM 66.2 °F 62.6 °F 88% 29.68 in 10.0 mi ESE 6.9 mph - 0.00 in Rain Light Rain
6:54 AM 64.9 °F 63.0 °F 93% 29.70 in 10.0 mi SE 4.6 mph - 0.02 in   Overcast
7:54 AM 66.0 °F 63.0 °F 90% 29.70 in 10.0 mi SE 4.6 mph - 0.00 in   Overcast
8:26 AM 66.2 °F 62.6 °F 88% 29.70 in 2.0 mi Variable 3.5 mph - 0.05 in Rain Rain
8:36 AM 66.2 °F 62.6 °F 88% 29.70 in 3.0 mi Calm Calm - 0.08 in Rain Rain
8:47 AM 64.4 °F 62.6 °F 94% 29.70 in 2.5 mi Calm Calm - 0.11 in Rain Rain
8:54 AM 64.9 °F 62.1 °F 90% 29.72 in 2.0 mi Variable 4.6 mph - 0.14 in Rain Heavy Rain
8:58 AM 64.4 °F 62.6 °F 94% 29.70 in 3.0 mi NNE 8.1 mph - 0.00 in Rain Light Rain
9:12 AM 64.4 °F 60.8 °F 88% 29.71 in 4.0 mi North 6.9 mph - 0.01 in Rain Light Rain
9:35 AM 64.4 °F 60.8 °F 88% 29.71 in 10.0 mi NNE 4.6 mph - 0.02 in   Overcast
9:54 AM 64.9 °F 61.0 °F 87% 29.73 in 10.0 mi Variable 3.5 mph - 0.02 in   Overcast
10:54 AM 66.0 °F 60.1 °F 81% 29.74 in 10.0 mi WNW 12.7 mph 19.6 mph N/A   Overcast
11:54 AM 66.0 °F 60.1 °F 81% 29.75 in 10.0 mi WNW 9.2 mph 16.1 mph N/A   Overcast
12:54 PM 66.9 °F 60.1 °F 79% 29.76 in 10.0 mi Variable 5.8 mph 17.3 mph N/A   Overcast
1:08 PM 69.8 °F 60.8 °F 73% 29.74 in 10.0 mi WNW 6.9 mph - N/A   Overcast
1:54 PM 69.1 °F 59.0 °F 70% 29.75 in 10.0 mi NW 11.5 mph 16.1 mph N/A   Overcast
2:41 PM 68.0 °F 60.8 °F 78% 29.74 in 10.0 mi NW 9.2 mph - 0.00 in Rain Light Rain
2:52 PM 69.8 °F 59.0 °F 68% 29.74 in 10.0 mi WNW 8.1 mph 18.4 mph 0.00 in   Overcast
2:54 PM 69.1 °F 59.0 °F 70% 29.76 in 10.0 mi WNW 5.8 mph 18.4 mph 0.00 in   Overcast
3:28 PM 68.0 °F 59.0 °F 73% 29.76 in 10.0 mi WNW 13.8 mph 24.2 mph N/A   Overcast
3:54 PM 69.1 °F 61.0 °F 75% 29.78 in 10.0 mi NW 9.2 mph - N/A   Overcast
4:54 PM 69.1 °F 60.1 °F 73% 29.78 in 10.0 mi NW 9.2 mph 18.4 mph N/A   Overcast
5:54 PM 69.1 °F 60.1 °F 73% 29.78 in 10.0 mi NW 11.5 mph - N/A   Overcast
6:54 PM 69.1 °F 60.1 °F 73% 29.79 in 10.0 mi NNW 6.9 mph - N/A   Overcast
7:54 PM 69.1 °F 59.0 °F 70% 29.80 in 10.0 mi WNW 8.1 mph - N/A   Overcast
8:54 PM 68.0 °F 60.1 °F 76% 29.81 in 10.0 mi Variable 5.8 mph - N/A   Overcast
9:54 PM 68.0 °F 60.1 °F 76% 29.84 in 10.0 mi WNW 6.9 mph - N/A   Overcast
10:54 PM 66.9 °F 59.0 °F 76% 29.86 in 10.0 mi NW 8.1 mph - N/A   Overcast
11:54 PM 64.9 °F 59.0 °F 81% 29.87 in 10.0 mi NNW 12.7 mph - N/A   Overcast